This is the latest recevied weather packets stored in our database for station/object KD4PMP. If no packets are shown the sender has not sent any weather packets the latest 10 day(s).
| Time | Temp. | Humidity | Pressure | Rain* | Wind** | Luminosity | Snow |
|---|---|---|---|---|---|---|---|
| 1777498200 | 19.44° C | 76% | 1012.2 hPa | 0 mm | - | - | - |
| 1777497000 | 18.89° C | 81% | 1012.4 hPa | 0 mm | - | - | - |
| 1777493998 | 18.89° C | 81% | 1012.5 hPa | 0 mm | - | - | - |
| 1777492828 | 19.44° C | 81% | 1012.7 hPa | 0 mm | - | - | - |
| 1777488596 | 20° C | 82% | 1012.7 hPa | 0 mm | - | - | - |
| 1777487395 | 20° C | 80% | 1012.7 hPa | 0 mm | - | - | - |
| 1777486825 | 20° C | 82% | 1012.5 hPa | 0 mm | - | - | - |
| 1777483793 | 20.56° C | 85% | 1012.6 hPa | 0 mm | - | - | - |
| 1777479622 | 21.11° C | 91% | 1012 hPa | 0 mm | - | - | - |
| 1777477821 | 20° C | 93% | 1011.8 hPa | 0 mm | - | - | - |
| 1777468816 | 18.33° C | 96% | 1011 hPa | 0 mm | - | - | - |
| 1777468216 | 17.78° C | 96% | 1011 hPa | 0 mm | - | - | - |
| 1777465815 | 17.78° C | 96% | 1011 hPa | 0 mm | - | - | - |
| 1777464614 | 17.22° C | 95% | 1010.7 hPa | 0 mm | - | - | - |
| 1777462213 | 17.22° C | 95% | 1010.9 hPa | 0 mm | - | - | - |
| 1777461612 | 17.22° C | 95% | 1010.7 hPa | 0 mm | - | - | - |
| 1777459812 | 17.22° C | 94% | 1010.5 hPa | 0 mm | - | - | - |
| 1777458011 | 17.22° C | 95% | 1010.2 hPa | 0 mm | - | - | - |
| 1777457410 | 17.22° C | 95% | 1010.1 hPa | 0 mm | - | - | - |
| 1777455609 | 17.22° C | 95% | 1009.9 hPa | 0 mm | - | - | - |
| 1777455009 | 17.22° C | 95% | 1009.9 hPa | 0 mm | - | - | - |
| 1777454409 | 17.22° C | 96% | 1010 hPa | 0 mm | - | - | - |
| 1777453809 | 17.22° C | 96% | 1009.8 hPa | 0 mm | - | - | - |
| 1777453209 | 17.22° C | 96% | 1009.7 hPa | 0 mm | - | - | - |
| 1777452008 | 17.22° C | 96% | 1009.9 hPa | 0 mm | - | - | - |
* Rain latest hour (hover to see other rain measurements)
** Current wind speed in m/s (hover to see current wind gust speed)